Flag for U.S.A. Weather past 2 weeks in Terre Haute, Indiana, U.S.A.

Now
83 °F

Sunny.


Feels Like: 83 °F
Forecast: 64 / 81 °F
Wind: 16 mph from West

Location: Terre Haute International Airport - Hulman Field

Current Time: May 27, 2015 at 6:15:08 PM

Latest Report: May 27, 2015 at 4:53 PM


Visibility: 10 mi

Pressure: 30.03 "Hg

Humidity: 44%

Dew point: 59 °F

Location of Terre HauteLocation

Historic Weather in Terre Haute — Graph

°F

Terre Haute temperature yesterday

Maximum temperature yesterday: 81 °F (at 4:53 PM)
Minimum temperature yesterday: 65 °F (at 1:53 AM)
Average temperature yesterday: 73 °F

Past Weeks' High & Low Weather Summary

 TemperatureHumidityPressure
High83 °F (May 15, 3:53 PM)97% (May 15, 7:53 PM)30.43 "Hg (May 15, 7:53 PM)
Low42 °F (May 13, 6:53 AM)36% (May 22, 4:53 PM)29.88 "Hg (May 26, 4:53 PM)
Average65 °F70%30.12 "Hg
* Reported May 12 3:53 PM — May 27 3:53 PM, Terre Haute, Weather by CustomWeather, © 2015

Note: Actual official high and low records may vary slightly from our data, if they occured in-between our weather recording intervals... More about our weather records

Advertising

Terre Haute weather history for previous 24 hours

 ConditionsComfort  
Time TempWeatherWind HumidityBarometerVisibility
3:53 PM
Wed, May 27
81 °FSunny.12 mph47%30.03 "Hg10 mi
2:53 PM80 °FSunny.15 mph45%30.03 "Hg10 mi
1:53 PM77 °FSunny.13 mph54%30.04 "Hg10 mi
12:53 PM78 °FPassing clouds.13 mph54%30.04 "Hg10 mi
11:53 AM77 °FScattered clouds.17 mph64%30.05 "Hg10 mi
10:53 AM76 °FPassing clouds.10 mph69%30.04 "Hg10 mi
9:53 AM72 °FPassing clouds.14 mph76%30.05 "Hg10 mi
8:53 AM69 °FScattered clouds.9 mph84%30.05 "Hg10 mi
7:53 AM66 °FSunny.8 mph90%30.03 "Hg10 mi
6:53 AM65 °FPassing clouds.9 mph91%30.03 "Hg10 mi
5:53 AM65 °FPassing clouds.8 mph91%30.02 "Hg10 mi
4:53 AM65 °FClear.9 mph91%30.01 "Hg10 mi
3:53 AM66 °FClear.8 mph84%29.97 "Hg10 mi
2:53 AM67 °FClear.9 mph81%29.98 "Hg10 mi
1:53 AM68 °FClear.9 mph78%29.99 "Hg10 mi
12:53 AM69 °FClear.12 mph76%29.98 "Hg10 mi
11:53 PM
Tue, May 26
70 °FClear.12 mph71%29.98 "Hg10 mi
10:53 PM70 °FClear.9 mph68%29.98 "Hg10 mi
9:53 PM72 °FPassing clouds.9 mph64%29.95 "Hg10 mi
8:53 PM74 °FScattered clouds.9 mph60%29.92 "Hg10 mi
7:53 PM75 °FBroken clouds.12 mph58%29.91 "Hg10 mi
6:53 PM78 °FBroken clouds.21 mph52%29.90 "Hg10 mi
Weather by CustomWeather, © 2015

See weather overviewHow to use our weather pages